JCSAT-13 1 38331U 12023A 21065.43898632 -.00000372 00000-0 00000-0 0 9996 2 38331 0.0214 231.7921 0001388 142.0869 72.4986 1.00274648 32184 VINASAT-2 1 38332U 12023B 21065.44055656 -.00000345 00000-0 00000-0 0 9999 2 38332 0.0443 305.0452 0002451 63.2944 86.4608 1.00272255 27321 ARIANE 5 R/B 1 38333U 12023C 21065.27517139 .00001553 00000-0 61044-3 0 9999 2 38333 1.7084 83.1623 7170864 73.8948 349.3054 2.41483731 76078 ARIANE 5 DEB [SYLDA] 1 38334U 12023D 21065.34718370 .00675878 -10044-5 46810-2 0 9993 2 38334 1.4171 114.7628 4336285 10.0574 356.4093 6.96911866116206